Jacksonville NAS, FL

4:19 AM EDT on April 30, 2017 (GMT -0400)
Jacksonville Naval Air Station

Weather History for KNIP - May, 2013

Change the Weather History Date:

Sunday, May 26, 2013

  Actual Average Record
Temperature  
Mean Temperature 72 °F -  
Max Temperature 84 °F 85 °F 95 °F (2004)
Min Temperature 63 °F 68 °F 63 °F (2005)
Cooling Degree Days 8    
Growing Degree Days 22 (Base 50)    
Moisture  
Dew Point 53 °F    
Average Humidity 51    
Maximum Humidity 84    
Minimum Humidity 27    
Precipitation  
Precipitation 0.00 in - - ()
Sea Level Pressure  
Sea Level Pressure 30.20 in    
Wind  
Wind Speed 7 mph (SE)    
Max Wind Speed 14 mph    
Max Gust Speed 18 mph    
Visibility 10 miles    
Events      
Averages and records for this station are not official NWS values.
T = Trace of Precipitation, MM = Missing Value Source: NWS Daily Summary

Daily Weather History Graph

Daily Weather History Graph

Search for Another Location

Airport or City:

Trip Planner

Search our weather history database for the weather conditions in past years. The results will help you decide how hot, cold, wet, or windy it might be!

Date:

Astronomy

May. 26, 2013 Rise Set
Actual Time 6:27 AM EDT 8:20 PM EDT
Civil Twilight 6:00 AM EDT 8:47 PM EDT
Nautical Twilight 5:28 AM EDT 9:20 PM EDT
Astronomical Twilight 4:53 AM EDT 9:54 PM EDT
Moon 10:08 PM EDT (5/26) 7:54 AM EDT (5/26)
Length of Visible Light 14h 47m
Length of Day
13h 53m
Waning Gibbous, 97% of the Moon is Illuminated
May 26
Waning Gibbous
May 31
Last Quarter
Jun 8
New
Jun 16
First Quarter
Jun 23
Full

Hourly Weather History & Observations

Time (EDT) Temp. Dew Point Humidity Pressure Visibility Wind Dir Wind Speed Gust Speed Precip Events Conditions
12:53 AM 70.0 °F 55.9 °F 61% 30.21 in 10.0 mi SE 8.1 mph - N/A   Mostly Cloudy
1:53 AM 70.0 °F 57.0 °F 63% 30.19 in 10.0 mi SE 5.8 mph - N/A   Mostly Cloudy
2:53 AM 71.1 °F 57.9 °F 63% 30.17 in 10.0 mi SSE 6.9 mph - N/A   Mostly Cloudy
3:53 AM 70.0 °F 57.0 °F 63% 30.17 in 10.0 mi SSE 6.9 mph - N/A   Mostly Cloudy
4:53 AM 70.0 °F 55.9 °F 61% 30.17 in 10.0 mi SSE 6.9 mph - N/A   Scattered Clouds
5:53 AM 64.9 °F 55.9 °F 73% 30.19 in 10.0 mi WSW 4.6 mph - N/A   Partly Cloudy
6:53 AM 63.0 °F 57.9 °F 84% 30.22 in 10.0 mi Calm Calm - N/A   Scattered Clouds
7:53 AM 66.9 °F 57.9 °F 73% 30.23 in 10.0 mi WSW 3.5 mph - N/A   Scattered Clouds
8:53 AM 71.1 °F 57.0 °F 61% 30.24 in 10.0 mi Calm Calm - N/A   Scattered Clouds
9:53 AM 73.9 °F 54.0 °F 50% 30.25 in 10.0 mi Calm Calm - N/A   Mostly Cloudy
10:53 AM 77.0 °F 54.0 °F 45% 30.24 in 10.0 mi Variable 4.6 mph - N/A   Scattered Clouds
11:53 AM 78.1 °F 53.1 °F 42% 30.25 in 10.0 mi Variable 3.5 mph - N/A   Scattered Clouds
12:53 PM 81.0 °F 48.9 °F 33% 30.23 in 10.0 mi NNE 6.9 mph - N/A   Mostly Cloudy
1:53 PM 82.0 °F 46.0 °F 28% 30.22 in 10.0 mi NE 8.1 mph - N/A   Mostly Cloudy
2:53 PM 82.9 °F 46.9 °F 28% 30.21 in 10.0 mi ENE 10.4 mph 18.4 mph N/A   Mostly Cloudy
3:53 PM 82.9 °F 46.9 °F 28% 30.19 in 10.0 mi ESE 13.8 mph - N/A   Mostly Cloudy
4:53 PM 82.0 °F 45.0 °F 27% 30.18 in 10.0 mi East 10.4 mph - N/A   Mostly Cloudy
5:53 PM 80.1 °F 46.9 °F 31% 30.17 in 10.0 mi East 11.5 mph - N/A   Mostly Cloudy
6:53 PM 79.0 °F 48.9 °F 35% 30.17 in 10.0 mi ESE 11.5 mph - N/A   Mostly Cloudy
7:53 PM 77.0 °F 51.1 °F 40% 30.17 in 10.0 mi ESE 9.2 mph - N/A   Mostly Cloudy
8:53 PM 75.0 °F 55.9 °F 51% 30.18 in 10.0 mi SE 10.4 mph - N/A   Mostly Cloudy
9:53 PM 73.9 °F 57.0 °F 55% 30.18 in 10.0 mi SSE 10.4 mph - N/A   Mostly Cloudy
10:53 PM 73.0 °F 57.0 °F 57% 30.20 in 10.0 mi SSE 10.4 mph - N/A   Mostly Cloudy
11:53 PM 73.0 °F 59.0 °F 61% 30.20 in 10.0 mi South 11.5 mph - N/A   Mostly Cloudy